Weather History for KDET - October, 2013

Change the Weather History Date:

Sunday, October 13, 2013

  Actual Average (KMTC) Record (KMTC)
Temperature  
Mean Temperature 62 °F -  
Max Temperature 70 °F 61 °F 82 °F (1997)
Min Temperature 54 °F 42 °F 27 °F (1993)
Degree Days  
Heating Degree Days 2    
Growing Degree Days 12 (Base 50)    
Moisture  
Dew Point 45 °F    
Average Humidity 56    
Maximum Humidity 90    
Minimum Humidity 25    
Precipitation  
Precipitation 0.00 in - - ()
Sea Level Pressure  
Sea Level Pressure 30.24 in    
Wind  
Wind Speed 4 mph (NW)    
Max Wind Speed 10 mph    
Max Gust Speed -    
Visibility 10 miles    
Events      
Averages and records for this station are not official NWS values.
T = Trace of Precipitation, MM = Missing Value Source: NWS Daily Summary

Daily Weather History Graph

Daily Weather History Graph

Search for Another Location

Airport or City:

Trip Planner

Search our weather history database for the weather conditions in past years. The results will help you decide how hot, cold, wet, or windy it might be!

Date:

Astronomy

Oct. 13, 2013 Rise Set
Actual Time 7:42 AM EDT 6:52 PM EDT
Civil Twilight 7:14 AM EDT 7:21 PM EDT
Nautical Twilight 6:42 AM EDT 7:53 PM EDT
Astronomical Twilight 6:09 AM EDT 8:26 PM EDT
Moon 3:49 PM EDT (10/13) 1:45 AM EDT (10/13)
Length of Visible Light 12h 06m
Length of Day
11h 09m
Waxing Gibbous, 69% of the Moon is Illuminated
Oct 13
Waxing Gibbous
Oct 18
Full
Oct 26
Last Quarter
Nov 3
New
Nov 10
First Quarter

Hourly Weather History & Observations

Time (EDT) Temp. Dew Point Humidity Pressure Visibility Wind Dir Wind Speed Gust Speed Precip Events Conditions
12:53 AM 64.0 °F 60.1 °F 87% 30.10 in 10.0 mi Calm Calm - N/A   Clear
1:53 AM 63.0 °F 59.0 °F 87% 30.10 in 10.0 mi SW 3.5 mph - N/A   Clear
2:53 AM 64.0 °F 59.0 °F 84% 30.12 in 10.0 mi WSW 4.6 mph - N/A   Clear
3:53 AM 62.1 °F 59.0 °F 90% 30.12 in 10.0 mi West 3.5 mph - N/A   Clear
4:53 AM 61.0 °F 57.9 °F 90% 30.14 in 8.0 mi WNW 3.5 mph - N/A   Scattered Clouds
5:53 AM 61.0 °F 57.9 °F 90% 30.16 in 7.0 mi WNW 3.5 mph - N/A   Mostly Cloudy
6:53 AM 61.0 °F 57.0 °F 87% 30.19 in 9.0 mi NW 3.5 mph - N/A   Mostly Cloudy
7:53 AM 61.0 °F 50.0 °F 67% 30.22 in 10.0 mi NW 9.2 mph - N/A   Overcast
8:53 AM 60.1 °F 45.0 °F 57% 30.25 in 10.0 mi North 9.2 mph - N/A   Partly Cloudy
9:53 AM 61.0 °F 42.1 °F 50% 30.27 in 10.0 mi NNW 5.8 mph - N/A   Mostly Cloudy
10:53 AM 63.0 °F 41.0 °F 45% 30.28 in 10.0 mi NNW 10.4 mph - N/A   Clear
11:53 AM 64.9 °F 39.0 °F 39% 30.29 in 10.0 mi NW 5.8 mph - N/A   Clear
12:53 PM 66.0 °F 37.9 °F 36% 30.29 in 10.0 mi NW 4.6 mph - N/A   Clear
1:53 PM 66.9 °F 39.0 °F 36% 30.27 in 10.0 mi Variable 4.6 mph - N/A   Clear
2:53 PM 69.1 °F 35.1 °F 29% 30.26 in 10.0 mi NNW 9.2 mph - N/A   Clear
3:53 PM 70.0 °F 37.0 °F 30% 30.26 in 10.0 mi Variable 6.9 mph - N/A   Clear
4:53 PM 70.0 °F 32.0 °F 25% 30.27 in 10.0 mi NNW 6.9 mph - N/A   Clear
5:53 PM 68.0 °F 34.0 °F 28% 30.27 in 10.0 mi North 5.8 mph - N/A   Clear
6:53 PM 64.9 °F 36.0 °F 34% 30.28 in 10.0 mi NW 4.6 mph - N/A   Clear
7:53 PM 62.1 °F 37.0 °F 39% 30.30 in 10.0 mi NW 4.6 mph - N/A   Clear
8:53 PM 60.1 °F 37.9 °F 44% 30.32 in 10.0 mi NNW 3.5 mph - N/A   Clear
9:53 PM 57.0 °F 39.9 °F 53% 30.33 in 10.0 mi North 5.8 mph - N/A   Clear
10:53 PM 55.9 °F 41.0 °F 57% 30.34 in 10.0 mi North 4.6 mph - N/A   Clear
11:53 PM 54.0 °F 41.0 °F 62% 30.35 in 10.0 mi North 3.5 mph - N/A   Clear